Location: Campillo
(40.8621°N, 4.2488°W)
Time: 13:41:23
(UTC+00:00)

Centaur D AC-29 - Pass Details

Date: 06 October 2021
Orbit: 571 x 36266 km, 26.8° (Epoch: 20 October)

Event Time Altitude Azimuth Distance (km) Brightness Sun altitude
Rises 01:04:19 0° 154° (SSE) 12,667 7.5 -51.9°
Reaches altitude 10° 01:31:07 10° 135° (SE) 18,095 8.3 -49.4°
Maximum altitude 09:25:34 68° 156° (SSE) 22,310 9.8 31.2°
Drops below altitude 10° 10:50:15 10° 100° (E) 8,311 7.3 40.8°
Sets 10:53:49 0° 98° (E) 8,272 7.1 41.0°
